| time (UTC) | temp F | wind direction | speed MPH | gust MPH | rain 1hr in | rain 24hr in | rain mn in | humidity % | barometer mb |
| 20260506035131 | 71 | 183 | 3.0 | 4.0 | 0.00 | 0.00 | 0.00 | 40 | 1010.4 |
| 20260506034628 | 72 | 176 | 3.0 | 4.0 | 0.00 | 0.00 | 0.00 | 39 | 1010.6 |
| 20260506034125 | 72 | 170 | 5.0 | 6.0 | 0.00 | 0.00 | 0.00 | 38 | 1010.4 |
| 20260506033623 | 72 | 170 | 6.0 | 8.0 | 0.00 | 0.00 | 0.00 | 38 | 1010.3 |
| 20260506033120 | 72 | 163 | 6.0 | 7.0 | 0.00 | 0.00 | 0.00 | 38 | 1010.4 |
| 20260506032617 | 72 | 168 | 6.0 | 6.0 | 0.00 | 0.00 | 0.00 | 38 | 1010.4 |
| 20260506032114 | 72 | 168 | 4.0 | 4.0 | 0.00 | 0.00 | 0.00 | 39 | 1010.3 |
| 20260506031611 | 72 | 163 | 2.0 | 3.0 | 0.00 | 0.00 | 0.00 | 39 | 1010.2 |
| 20260506031108 | 72 | 160 | 4.0 | 4.0 | 0.00 | 0.00 | 0.00 | 39 | 1010.0 |
| 20260506030606 | 72 | 153 | 3.0 | 6.0 | 0.00 | 0.00 | 0.00 | 39 | 1010.0 |
| 20260506030103 | 72 | 144 | 2.0 | 3.0 | 0.00 | 0.00 | 0.00 | 39 | 1009.9 |
| 20260506025600 | 73 | 162 | 3.0 | 4.0 | 0.00 | 0.00 | 0.00 | 38 | 1009.9 |
| 20260506025056 | 73 | 166 | 3.0 | 3.0 | 0.00 | 0.00 | 0.00 | 37 | 1010.0 |
| 20260506024553 | 74 | 166 | 2.0 | 3.0 | 0.00 | 0.00 | 0.00 | 35 | 1009.9 |
| 20260506024050 | 74 | 186 | 2.0 | 3.0 | 0.00 | 0.00 | 0.00 | 36 | 1009.9 |
| 20260506023545 | 74 | 170 | 2.0 | 2.0 | 0.00 | 0.00 | 0.00 | 33 | 1009.9 |
| 20260506023043 | 75 | 236 | 1.0 | 2.0 | 0.00 | 0.00 | 0.00 | 32 | 1009.8 |
| 20260506022541 | 75 | 269 | 0.0 | 1.0 | 0.00 | 0.00 | 0.00 | 32 | 1009.6 |
| 20260506022038 | 76 | 216 | 1.0 | 2.0 | 0.00 | 0.00 | 0.00 | 33 | 1009.7 |
| 20260506021535 | 76 | 246 | 2.0 | 2.0 | 0.00 | 0.00 | 0.00 | 31 | 1009.6 |
| 20260506021033 | 76 | 276 | 1.0 | 2.0 | 0.00 | 0.00 | 0.00 | 30 | 1009.4 |
| 20260506020530 | 76 | 333 | 2.0 | 3.0 | 0.00 | 0.00 | 0.00 | 30 | 1009.6 |
| 20260506020027 | 77 | 336 | 2.0 | 3.0 | 0.00 | 0.00 | 0.00 | 31 | 1009.6 |
| 20260506015525 | 77 | 290 | 2.0 | 3.0 | 0.00 | 0.00 | 0.00 | 30 | 1009.6 |
| 20260506015021 | 77 | 254 | 4.0 | 4.0 | 0.00 | 0.00 | 0.00 | 29 | 1009.7 |
| 20260506014519 | 77 | 211 | 2.0 | 2.0 | 0.00 | 0.00 | 0.00 | 30 | 1009.6 |
| 20260506014015 | 77 | 255 | 2.0 | 2.0 | 0.00 | 0.00 | 0.00 | 29 | 1009.7 |
| 20260506013513 | 78 | 254 | 2.0 | 2.0 | 0.00 | 0.00 | 0.00 | 29 | 1009.7 |
| 20260506013009 | 78 | 275 | 1.0 | 3.0 | 0.00 | 0.00 | 0.00 | 29 | 1009.7 |
| 20260506012505 | 78 | 296 | 4.0 | 6.0 | 0.00 | 0.00 | 0.00 | 28 | 1009.4 |
| 20260506012003 | 79 | 323 | 3.0 | 4.0 | 0.00 | 0.00 | 0.00 | 28 | 1009.4 |
| 20260506011500 | 79 | 294 | 4.0 | 10.0 | 0.00 | 0.00 | 0.00 | 28 | 1009.4 |
| 20260506010956 | 79 | 286 | 3.0 | 9.0 | 0.00 | 0.00 | 0.00 | 28 | 1009.3 |
| 20260506010456 | 79 | 298 | 8.0 | 11.0 | 0.00 | 0.00 | 0.00 | 27 | 1009.4 |
| 20260506005951 | 80 | 290 | 5.0 | 14.0 | 0.00 | 0.00 | 0.00 | 27 | 1009.3 |
| 20260506005449 | 80 | 297 | 7.0 | 12.0 | 0.00 | 0.00 | 0.00 | 27 | 1009.1 |
| 20260506004944 | 80 | 307 | 12.0 | 13.0 | 0.00 | 0.00 | 0.00 | 27 | 1009.3 |
| 20260506004442 | 80 | 295 | 6.0 | 16.0 | 0.00 | 0.00 | 0.00 | 26 | 1009.4 |
| 20260506003938 | 80 | 290 | 9.0 | 16.0 | 0.00 | 0.00 | 0.00 | 26 | 1009.6 |
| 20260506003435 | 80 | 288 | 7.0 | 15.0 | 0.00 | 0.00 | 0.00 | 26 | 1009.6 |
| 20260506002931 | 80 | 300 | 6.0 | 15.0 | 0.00 | 0.00 | 0.00 | 26 | 1009.7 |
| 20260506002427 | 80 | 301 | 7.0 | 15.0 | 0.00 | 0.00 | 0.00 | 26 | 1009.7 |
| 20260506001923 | 80 | 301 | 12.0 | 18.0 | 0.00 | 0.00 | 0.00 | 26 | 1009.8 |
| 20260506001420 | 81 | 289 | 17.0 | 17.0 | 0.00 | 0.00 | 0.00 | 25 | 1009.7 |
| 20260506000917 | 81 | 273 | 10.0 | 16.0 | 0.00 | 0.00 | 0.00 | 25 | 1009.8 |
| 20260506000416 | 81 | 286 | 7.0 | 21.0 | 0.00 | 0.00 | 0.00 | 25 | 1009.9 |
| 20260505235911 | 81 | 273 | 10.0 | 16.0 | 0.00 | 0.00 | 0.00 | 24 | 1009.9 |
| 20260505235409 | 82 | 287 | 11.0 | 19.0 | 0.00 | 0.00 | 0.00 | 24 | 1009.9 |
| 20260505234906 | 82 | 286 | 13.0 | 19.0 | 0.00 | 0.00 | 0.00 | 24 | 1009.8 |
| 20260505234404 | 82 | 279 | 14.0 | 20.0 | 0.00 | 0.00 | 0.00 | 24 | 1009.8 |
| 20260505233900 | 82 | 259 | 12.0 | 19.0 | 0.00 | 0.00 | 0.00 | 24 | 1009.9 |
| 20260505233358 | 82 | 273 | 12.0 | 19.0 | 0.00 | 0.00 | 0.00 | 25 | 1009.8 |
| 20260505232855 | 82 | 245 | 11.0 | 16.0 | 0.00 | 0.00 | 0.00 | 25 | 1009.7 |
| 20260505232353 | 82 | 272 | 13.0 | 18.0 | 0.00 | 0.00 | 0.00 | 24 | 1009.8 |
| 20260505231849 | 82 | 291 | 14.0 | 17.0 | 0.00 | 0.00 | 0.00 | 24 | 1009.6 |
| 20260505231347 | 82 | 278 | 15.0 | 21.0 | 0.00 | 0.00 | 0.00 | 24 | 1009.7 |
| 20260505230845 | 82 | 285 | 12.0 | 24.0 | 0.00 | 0.00 | 0.00 | 24 | 1009.6 |
| 20260505230342 | 83 | 267 | 16.0 | 21.0 | 0.00 | 0.00 | 0.00 | 24 | 1009.8 |
| 20260505225839 | 83 | 291 | 17.0 | 21.0 | 0.00 | 0.00 | 0.00 | 23 | 1009.6 |
| 20260505225336 | 83 | 271 | 11.0 | 17.0 | 0.00 | 0.00 | 0.00 | 23 | 1009.6 |
| 20260505224837 | 83 | 286 | 13.0 | 18.0 | 0.00 | 0.00 | 0.00 | 23 | 1009.4 |
| 20260505224335 | 83 | 278 | 8.0 | 22.0 | 0.00 | 0.00 | 0.00 | 23 | 1009.4 |
| 20260505223832 | 83 | 279 | 10.0 | 22.0 | 0.00 | 0.00 | 0.00 | 23 | 1009.8 |
| 20260505223329 | 84 | 288 | 13.0 | 21.0 | 0.00 | 0.00 | 0.00 | 22 | 1009.4 |
| 20260505222824 | 83 | 260 | 18.0 | 26.0 | 0.00 | 0.00 | 0.00 | 22 | 1009.7 |
| 20260505222321 | 83 | 294 | 14.0 | 21.0 | 0.00 | 0.00 | 0.00 | 22 | 1009.6 |
| 20260505221818 | 84 | 281 | 15.0 | 24.0 | 0.00 | 0.00 | 0.00 | 21 | 1010.2 |
| 20260505221314 | 84 | 272 | 18.0 | 22.0 | 0.00 | 0.00 | 0.00 | 21 | 1009.7 |
| 20260505220812 | 84 | 272 | 8.0 | 20.0 | 0.00 | 0.00 | 0.00 | 22 | 1009.6 |
| 20260505220309 | 84 | 263 | 21.0 | 22.0 | 0.00 | 0.00 | 0.00 | 22 | 1009.4 |
| 20260505215807 | 84 | 275 | 18.0 | 20.0 | 0.00 | 0.00 | 0.00 | 22 | 1009.8 |
| 20260505215305 | 84 | 256 | 12.0 | 24.0 | 0.00 | 0.00 | 0.00 | 21 | 1009.8 |
| 20260505214802 | 85 | 273 | 15.0 | 21.0 | 0.00 | 0.00 | 0.00 | 21 | 1009.7 |
| 20260505214259 | 85 | 271 | 11.0 | 13.0 | 0.00 | 0.00 | 0.00 | 21 | 1009.4 |
| 20260505213756 | 84 | 264 | 7.0 | 9.0 | 0.00 | 0.00 | 0.00 | 21 | 1009.4 |
| 20260505213254 | 84 | 293 | 8.0 | 11.0 | 0.00 | 0.00 | 0.00 | 20 | 1009.4 |
| 20260505212749 | 84 | 283 | 10.0 | 18.0 | 0.00 | 0.00 | 0.00 | 20 | 1009.9 |
| 20260505212247 | 84 | 261 | 12.0 | 22.0 | 0.00 | 0.00 | 0.00 | 20 | 1009.9 |
| 20260505211744 | 85 | 263 | 10.0 | 19.0 | 0.00 | 0.00 | 0.00 | 20 | 1009.9 |
| 20260505211241 | 85 | 259 | 13.0 | 17.0 | 0.00 | 0.00 | 0.00 | 19 | 1010.0 |
| 20260505210737 | 85 | 264 | 8.0 | 22.0 | 0.00 | 0.00 | 0.00 | 20 | 1010.2 |
| 20260505210234 | 85 | 280 | 15.0 | 19.0 | 0.00 | 0.00 | 0.00 | 20 | 1009.8 |
| 20260505205732 | 85 | 261 | 14.0 | 14.0 | 0.00 | 0.00 | 0.00 | 19 | 1009.8 |
| 20260505205230 | 85 | 242 | 12.0 | 17.0 | 0.00 | 0.00 | 0.00 | 19 | 1009.8 |
| 20260505204726 | 87 | 281 | 5.0 | 20.0 | 0.00 | 0.00 | 0.00 | 19 | 1010.0 |
| 20260505204224 | 86 | 268 | 13.0 | 19.0 | 0.00 | 0.00 | 0.00 | 20 | 1010.1 |
| 20260505203721 | 85 | 260 | 10.0 | 16.0 | 0.00 | 0.00 | 0.00 | 20 | 1010.0 |
| 20260505203218 | 85 | 279 | 12.0 | 19.0 | 0.00 | 0.00 | 0.00 | 20 | 1010.1 |
| 20260505202713 | 87 | 280 | 12.0 | 20.0 | 0.00 | 0.00 | 0.00 | 20 | 1010.2 |
| 20260505202210 | 87 | 257 | 15.0 | 20.0 | 0.00 | 0.00 | 0.00 | 20 | 1010.4 |
| 20260505201706 | 85 | 295 | 15.0 | 18.0 | 0.00 | 0.00 | 0.00 | 21 | 1010.4 |
| 20260505201204 | 86 | 284 | 7.0 | 16.0 | 0.00 | 0.00 | 0.00 | 21 | 1010.4 |
| 20260505200702 | 86 | 247 | 9.0 | 11.0 | 0.00 | 0.00 | 0.00 | 21 | 1009.8 |
| 20260505200159 | 84 | 271 | 5.0 | 13.0 | 0.00 | 0.00 | 0.00 | 22 | 1010.1 |
| 20260505195654 | 84 | 260 | 12.0 | 15.0 | 0.00 | 0.00 | 0.00 | 22 | 1010.4 |
| 20260505195152 | 85 | 276 | 12.0 | 15.0 | 0.00 | 0.00 | 0.00 | 22 | 1010.5 |
| 20260505194649 | 85 | 271 | 5.0 | 13.0 | 0.00 | 0.00 | 0.00 | 22 | 1010.4 |
| 20260505194145 | 84 | 236 | 7.0 | 16.0 | 0.00 | 0.00 | 0.00 | 22 | 1010.5 |
| 20260505193642 | 85 | 264 | 10.0 | 20.0 | 0.00 | 0.00 | 0.00 | 21 | 1010.2 |
| 20260505193139 | 86 | 284 | 10.0 | 17.0 | 0.00 | 0.00 | 0.00 | 22 | 1010.3 |
| 20260505192638 | 85 | 290 | 6.0 | 16.0 | 0.00 | 0.00 | 0.00 | 22 | 1010.4 |
| 20260505192135 | 85 | 296 | 15.0 | 18.0 | 0.00 | 0.00 | 0.00 | 21 | 1010.4 |
| 20260505191633 | 85 | 276 | 12.0 | 19.0 | 0.00 | 0.00 | 0.00 | 22 | 1010.5 |
| 20260505191131 | 85 | 290 | 12.0 | 22.0 | 0.00 | 0.00 | 0.00 | 21 | 1010.5 |
| 20260505190626 | 86 | 289 | 5.0 | 20.0 | 0.00 | 0.00 | 0.00 | 21 | 1010.6 |
| 20260505190121 | 87 | 289 | 15.0 | 21.0 | 0.00 | 0.00 | 0.00 | 21 | 1010.5 |
| 20260505185619 | 86 | 314 | 13.0 | 21.0 | 0.00 | 0.00 | 0.00 | 21 | 1010.9 |
| 20260505185115 | 85 | 301 | 13.0 | 16.0 | 0.00 | 0.00 | 0.00 | 21 | 1010.5 |
| 20260505184611 | 85 | 296 | 11.0 | 19.0 | 0.00 | 0.00 | 0.00 | 22 | 1010.4 |
| 20260505184108 | 86 | 299 | 22.0 | 24.0 | 0.00 | 0.00 | 0.00 | 21 | 1010.6 |
| 20260505183605 | 86 | 309 | 15.0 | 19.0 | 0.00 | 0.00 | 0.00 | 22 | 1010.9 |
| 20260505183103 | 85 | 290 | 13.0 | 21.0 | 0.00 | 0.00 | 0.00 | 22 | 1010.9 |
| 20260505182558 | 86 | 311 | 17.0 | 28.0 | 0.00 | 0.00 | 0.00 | 22 | 1010.9 |
| 20260505182055 | 86 | 296 | 22.0 | 22.0 | 0.00 | 0.00 | 0.00 | 22 | 1010.7 |
| 20260505181552 | 85 | 284 | 11.0 | 19.0 | 0.00 | 0.00 | 0.00 | 23 | 1010.7 |
| 20260505181049 | 86 | 256 | 11.0 | 17.0 | 0.00 | 0.00 | 0.00 | 23 | 1010.6 |
| 20260505180545 | 85 | 289 | 9.0 | 18.0 | 0.00 | 0.00 | 0.00 | 23 | 1010.9 |
| 20260505180044 | 85 | 276 | 10.0 | 17.0 | 0.00 | 0.00 | 0.00 | 23 | 1010.9 |
| 20260505175543 | 85 | 278 | 18.0 | 20.0 | 0.00 | 0.00 | 0.00 | 21 | 1010.7 |
| 20260505175041 | 85 | 302 | 14.0 | 19.0 | 0.00 | 0.00 | 0.00 | 22 | 1011.0 |
| 20260505174537 | 85 | 303 | 14.0 | 21.0 | 0.00 | 0.00 | 0.00 | 22 | 1011.0 |
| 20260505174033 | 85 | 283 | 16.0 | 24.0 | 0.00 | 0.00 | 0.00 | 22 | 1011.0 |
| 20260505173530 | 85 | 298 | 16.0 | 23.0 | 0.00 | 0.00 | 0.00 | 22 | 1011.0 |
| 20260505173027 | 85 | 303 | 18.0 | 20.0 | 0.00 | 0.00 | 0.00 | 23 | 1011.0 |
| 20260505172525 | 84 | 315 | 17.0 | 23.0 | 0.00 | 0.00 | 0.00 | 23 | 1011.0 |
| 20260505172021 | 84 | 291 | 13.0 | 24.0 | 0.00 | 0.00 | 0.00 | 23 | 1011.0 |
| 20260505171516 | 85 | 299 | 15.0 | 20.0 | 0.00 | 0.00 | 0.00 | 23 | 1011.2 |
| 20260505171014 | 84 | 331 | 10.0 | 20.0 | 0.00 | 0.00 | 0.00 | 23 | 1010.9 |
| 20260505170510 | 84 | 296 | 15.0 | 27.0 | 0.00 | 0.00 | 0.00 | 23 | 1011.0 |
| 20260505170006 | 84 | 305 | 13.0 | 20.0 | 0.00 | 0.00 | 0.00 | 23 | 1011.1 |
| 20260505165502 | 84 | 294 | 10.0 | 16.0 | 0.00 | 0.00 | 0.00 | 23 | 1011.0 |
| 20260505164958 | 83 | 283 | 8.0 | 18.0 | 0.00 | 0.00 | 0.00 | 24 | 1011.1 |
| 20260505164454 | 83 | 279 | 8.0 | 18.0 | 0.00 | 0.00 | 0.00 | 24 | 1011.3 |
| 20260505163952 | 83 | 244 | 14.0 | 17.0 | 0.00 | 0.00 | 0.00 | 24 | 1011.2 |
| 20260505163450 | 83 | 246 | 12.0 | 19.0 | 0.00 | 0.00 | 0.00 | 24 | 1011.1 |
| 20260505162949 | 83 | 251 | 14.0 | 14.0 | 0.00 | 0.00 | 0.00 | 25 | 1011.2 |
| 20260505162445 | 83 | 255 | 11.0 | 12.0 | 0.00 | 0.00 | 0.00 | 26 | 1011.3 |
| 20260505161942 | 83 | 290 | 13.0 | 19.0 | 0.00 | 0.00 | 0.00 | 25 | 1011.2 |
| 20260505161438 | 82 | 287 | 4.0 | 13.0 | 0.00 | 0.00 | 0.00 | 26 | 1011.0 |
| 20260505160936 | 82 | 285 | 9.0 | 12.0 | 0.00 | 0.00 | 0.00 | 26 | 1011.2 |
| 20260505160434 | 82 | 275 | 7.0 | 15.0 | 0.00 | 0.00 | 0.00 | 26 | 1011.2 |
| 20260505152910 | 78 | 264 | 4.0 | 10.0 | 0.00 | 0.00 | 0.00 | 41 | 1010.7 |
| 20260505152408 | 77 | 267 | 4.0 | 10.0 | 0.00 | 0.00 | 0.00 | 42 | 1010.9 |
| 20260505151907 | 76 | 241 | 11.0 | 13.0 | 0.00 | 0.00 | 0.00 | 44 | 1010.6 |
| 20260505151404 | 76 | 241 | 7.0 | 11.0 | 0.00 | 0.00 | 0.00 | 45 | 1010.7 |
| 20260505150901 | 75 | 268 | 6.0 | 8.0 | 0.00 | 0.00 | 0.00 | 47 | 1010.6 |
| 20260505150359 | 75 | 254 | 6.0 | 11.0 | 0.00 | 0.00 | 0.00 | 47 | 1010.6 |
| 20260505140328 | 70 | 227 | 6.0 | 9.0 | 0.00 | 0.00 | 0.00 | 68 | 1010.2 |
| 20260505130252 | 63 | 241 | 7.0 | 7.0 | 0.00 | 0.00 | 0.00 | 86 | 1010.0 |
| 20260505124742 | 62 | 228 | 4.0 | 6.0 | 0.00 | 0.00 | 0.00 | 87 | 1009.6 |
| 20260505124239 | 62 | 235 | 4.0 | 6.0 | 0.00 | 0.00 | 0.00 | 87 | 1009.6 |
| 20260505123734 | 62 | 236 | 3.0 | 6.0 | 0.00 | 0.00 | 0.00 | 87 | 1009.3 |
| 20260505123232 | 61 | 233 | 5.0 | 5.0 | 0.00 | 0.00 | 0.00 | 87 | 1009.3 |
| 20260505122728 | 61 | 217 | 4.0 | 7.0 | 0.00 | 0.00 | 0.00 | 88 | 1009.4 |
| 20260505122225 | 61 | 213 | 3.0 | 6.0 | 0.00 | 0.00 | 0.00 | 88 | 1009.2 |
| 20260505121722 | 61 | 225 | 2.0 | 4.0 | 0.00 | 0.00 | 0.00 | 88 | 1009.3 |
| 20260505121219 | 61 | 219 | 2.0 | 3.0 | 0.00 | 0.00 | 0.00 | 88 | 1009.3 |
| 20260505120715 | 61 | 214 | 3.0 | 4.0 | 0.00 | 0.00 | 0.00 | 88 | 1009.4 |
| 20260505120211 | 61 | 208 | 2.0 | 3.0 | 0.00 | 0.00 | 0.00 | 88 | 1009.1 |
| 20260505115704 | 60 | 209 | 1.0 | 2.0 | 0.00 | 0.00 | 0.00 | 88 | 1009.1 |
| 20260505115203 | 61 | 214 | 2.0 | 3.0 | 0.00 | 0.00 | 0.00 | 88 | 1009.1 |
| 20260505114659 | 61 | 182 | 2.0 | 3.0 | 0.00 | 0.00 | 0.00 | 87 | 1009.1 |
| 20260505114155 | 61 | 176 | 2.0 | 2.0 | 0.00 | 0.00 | 0.00 | 87 | 1009.0 |
| 20260505113652 | 61 | 177 | 0.0 | 1.0 | 0.00 | 0.00 | 0.00 | 86 | 1009.1 |
| 20260505113149 | 62 | 172 | 1.0 | 2.0 | 0.00 | 0.00 | 0.00 | 86 | 1009.1 |
| 20260505112645 | 62 | 136 | 0.0 | 3.0 | 0.00 | 0.00 | 0.00 | 86 | 1009.0 |
| 20260505112143 | 62 | 177 | 1.0 | 2.0 | 0.00 | 0.00 | 0.00 | 86 | 1009.1 |
| 20260505111642 | 62 | 253 | 2.0 | 2.0 | 0.00 | 0.00 | 0.00 | 85 | 1009.2 |
| 20260505111139 | 62 | 226 | 2.0 | 2.0 | 0.00 | 0.00 | 0.00 | 85 | 1009.0 |
| 20260505110635 | 62 | 248 | 3.0 | 3.0 | 0.00 | 0.00 | 0.00 | 85 | 1009.1 |
| 20260505110132 | 62 | 269 | 1.0 | 2.0 | 0.00 | 0.00 | 0.00 | 84 | 1009.0 |
| 20260505102108 | 65 | 222 | 5.0 | 6.0 | 0.00 | 0.00 | 0.00 | 80 | 1009.0 |
| 20260505101606 | 65 | 239 | 4.0 | 6.0 | 0.00 | 0.00 | 0.00 | 79 | 1008.9 |
| 20260505101102 | 66 | 233 | 6.0 | 6.0 | 0.00 | 0.00 | 0.00 | 79 | 1008.8 |
| 20260505100559 | 66 | 244 | 6.0 | 10.0 | 0.00 | 0.00 | 0.00 | 78 | 1008.7 |
| 20260505100056 | 66 | 230 | 6.0 | 8.0 | 0.00 | 0.00 | 0.00 | 78 | 1008.7 |
| 20260505095552 | 66 | 233 | 7.0 | 8.0 | 0.00 | 0.00 | 0.00 | 78 | 1008.6 |
| 20260505095049 | 66 | 237 | 5.0 | 6.0 | 0.00 | 0.00 | 0.00 | 78 | 1008.6 |
| 20260505094545 | 67 | 242 | 5.0 | 8.0 | 0.00 | 0.00 | 0.00 | 77 | 1008.9 |
| 20260505094041 | 67 | 241 | 6.0 | 8.0 | 0.00 | 0.00 | 0.00 | 77 | 1008.5 |
| 20260505093538 | 67 | 237 | 6.0 | 8.0 | 0.00 | 0.00 | 0.00 | 76 | 1008.6 |
| 20260505093036 | 67 | 220 | 7.0 | 9.0 | 0.00 | 0.00 | 0.00 | 76 | 1008.5 |
| 20260505092533 | 68 | 200 | 2.0 | 7.0 | 0.00 | 0.00 | 0.00 | 75 | 1008.6 |
| 20260505092031 | 68 | 225 | 5.0 | 11.0 | 0.00 | 0.00 | 0.00 | 75 | 1008.5 |
| 20260505091527 | 68 | 209 | 6.0 | 10.0 | 0.00 | 0.00 | 0.00 | 75 | 1008.6 |
| 20260505091026 | 68 | 236 | 5.0 | 12.0 | 0.00 | 0.00 | 0.00 | 75 | 1008.4 |
| 20260505090524 | 68 | 195 | 5.0 | 12.0 | 0.00 | 0.00 | 0.00 | 75 | 1008.6 |
| 20260505090021 | 68 | 217 | 4.0 | 11.0 | 0.00 | 0.00 | 0.00 | 74 | 1008.6 |
| 20260505085519 | 68 | 235 | 9.0 | 12.0 | 0.00 | 0.00 | 0.00 | 74 | 1008.7 |
| 20260505085017 | 68 | 233 | 9.0 | 10.0 | 0.00 | 0.00 | 0.00 | 74 | 1008.6 |
| 20260505084515 | 68 | 230 | 9.0 | 11.0 | 0.00 | 0.00 | 0.00 | 74 | 1008.5 |
| 20260505084012 | 68 | 218 | 7.0 | 11.0 | 0.00 | 0.00 | 0.00 | 73 | 1008.7 |
| 20260505083509 | 68 | 186 | 5.0 | 8.0 | 0.00 | 0.00 | 0.00 | 73 | 1008.7 |
| 20260505083006 | 69 | 229 | 6.0 | 13.0 | 0.00 | 0.00 | 0.00 | 72 | 1008.8 |
| 20260505082502 | 69 | 202 | 5.0 | 11.0 | 0.00 | 0.00 | 0.00 | 72 | 1008.7 |
| 20260505081959 | 69 | 206 | 5.0 | 12.0 | 0.00 | 0.00 | 0.00 | 72 | 1008.7 |
| 20260505081455 | 69 | 221 | 8.0 | 13.0 | 0.00 | 0.00 | 0.00 | 71 | 1008.7 |
| 20260505080952 | 69 | 216 | 7.0 | 12.0 | 0.00 | 0.00 | 0.00 | 71 | 1008.5 |
| 20260505080448 | 69 | 217 | 5.0 | 16.0 | 0.00 | 0.00 | 0.00 | 71 | 1008.5 |
| 20260505075944 | 69 | 222 | 6.0 | 7.0 | 0.00 | 0.00 | 0.00 | 70 | 1008.7 |
| 20260505075440 | 69 | 206 | 6.0 | 9.0 | 0.00 | 0.00 | 0.00 | 70 | 1008.6 |
| 20260505074938 | 69 | 209 | 5.0 | 12.0 | 0.00 | 0.00 | 0.00 | 70 | 1008.8 |
| 20260505074436 | 70 | 192 | 5.0 | 11.0 | 0.00 | 0.00 | 0.00 | 69 | 1008.7 |
| 20260505073932 | 70 | 184 | 10.0 | 15.0 | 0.00 | 0.00 | 0.00 | 69 | 1009.1 |
| 20260505073430 | 70 | 230 | 9.0 | 11.0 | 0.00 | 0.00 | 0.00 | 69 | 1009.1 |
| 20260505072927 | 70 | 232 | 7.0 | 12.0 | 0.00 | 0.00 | 0.00 | 68 | 1009.0 |
| 20260505072423 | 70 | 222 | 6.0 | 14.0 | 0.00 | 0.00 | 0.00 | 68 | 1009.0 |
| 20260505071919 | 70 | 224 | 6.0 | 9.0 | 0.00 | 0.00 | 0.00 | 68 | 1009.0 |
| 20260505071415 | 70 | 219 | 4.0 | 9.0 | 0.00 | 0.00 | 0.00 | 67 | 1009.1 |
| 20260505070914 | 71 | 215 | 6.0 | 13.0 | 0.00 | 0.00 | 0.00 | 66 | 1009.0 |
| 20260505070409 | 71 | 233 | 10.0 | 14.0 | 0.00 | 0.00 | 0.00 | 65 | 1009.1 |
| 20260505065905 | 71 | 193 | 4.0 | 11.0 | 0.00 | 0.00 | 0.00 | 64 | 1009.1 |
| 20260505065402 | 71 | 217 | 5.0 | 13.0 | 0.00 | 0.00 | 0.00 | 64 | 1009.0 |
| 20260505064859 | 71 | 217 | 6.0 | 14.0 | 0.00 | 0.00 | 0.00 | 63 | 1009.2 |
| 20260505064356 | 72 | 200 | 8.0 | 11.0 | 0.00 | 0.00 | 0.00 | 63 | 1009.2 |
| 20260505063855 | 72 | 204 | 4.0 | 11.0 | 0.00 | 0.00 | 0.00 | 62 | 1009.0 |
| 20260505063355 | 72 | 212 | 7.0 | 15.0 | 0.00 | 0.00 | 0.00 | 62 | 1009.4 |
| 20260505062852 | 72 | 200 | 7.0 | 12.0 | 0.00 | 0.00 | 0.00 | 62 | 1009.3 |
| 20260505062349 | 72 | 237 | 10.0 | 14.0 | 0.00 | 0.00 | 0.00 | 61 | 1009.3 |
| 20260505061846 | 72 | 206 | 9.0 | 12.0 | 0.00 | 0.00 | 0.00 | 60 | 1009.3 |
| 20260505061344 | 72 | 201 | 7.0 | 11.0 | 0.00 | 0.00 | 0.00 | 60 | 1009.1 |
| 20260505060842 | 73 | 196 | 3.0 | 11.0 | 0.00 | 0.00 | 0.00 | 60 | 1009.2 |
| 20260505060338 | 73 | 229 | 6.0 | 7.0 | 0.00 | 0.00 | 0.00 | 59 | 1009.6 |
| 20260505055834 | 73 | 184 | 4.0 | 9.0 | 0.00 | 0.00 | 0.00 | 59 | 1009.6 |
| 20260505055330 | 73 | 193 | 8.0 | 14.0 | 0.00 | 0.00 | 0.00 | 58 | 1009.4 |
| 20260505054828 | 73 | 193 | 10.0 | 12.0 | 0.00 | 0.00 | 0.00 | 57 | 1009.6 |
| 20260505054325 | 73 | 209 | 8.0 | 11.0 | 0.00 | 0.00 | 0.00 | 57 | 1009.4 |
| 20260505053823 | 74 | 193 | 9.0 | 15.0 | 0.00 | 0.00 | 0.00 | 56 | 1009.4 |
| 20260505053320 | 73 | 212 | 13.0 | 16.0 | 0.00 | 0.00 | 0.00 | 56 | 1009.6 |
| 20260505052817 | 73 | 205 | 8.0 | 10.0 | 0.00 | 0.00 | 0.00 | 56 | 1009.7 |
| 20260505052313 | 73 | 212 | 6.0 | 11.0 | 0.00 | 0.00 | 0.00 | 55 | 1010.0 |
| 20260505051811 | 73 | 208 | 6.0 | 10.0 | 0.00 | 0.00 | 0.00 | 55 | 1009.8 |
| 20260505051308 | 73 | 218 | 9.0 | 13.0 | 0.00 | 0.00 | 0.00 | 54 | 1009.8 |
| 20260505050806 | 74 | 207 | 4.0 | 10.0 | 0.00 | 0.00 | 0.00 | 53 | 1009.8 |
| 20260505050304 | 74 | 200 | 9.0 | 10.0 | 0.00 | 0.00 | 0.00 | 53 | 1009.6 |
| 20260505041734 | 76 | 196 | 8.0 | 9.0 | 0.00 | 0.00 | 0.00 | 48 | 1009.3 |
| 20260505041231 | 76 | 197 | 9.0 | 9.0 | 0.00 | 0.00 | 0.00 | 48 | 1009.7 |
| 20260505040729 | 77 | 200 | 6.0 | 11.0 | 0.00 | 0.00 | 0.00 | 47 | 1009.6 |
| 20260505040226 | 77 | 190 | 8.0 | 10.0 | 0.00 | 0.00 | 0.00 | 46 | 1009.3 |
| 20260505035723 | 77 | 200 | 7.0 | 10.0 | 0.00 | 0.00 | 0.00 | 46 | 1009.3 |